Terminal Aerodrome Forecast
Issued by NWS

Home | Current Version | Previous Version | Graphics & Text | Print | Product List | Glossary On
Versions: 1 2 3 4 5 6 7 8 9 10 11 12 13 14 15 16 17 18 19 20 21 22 23 24 25 26 27 28
000
FTUS45 KGGW 300500
TAFGDV
TAF
KGDV 300521Z 3006/3106 VRB06KT P6SM FEW250
     FM301200 11008KT P6SM BKN250
     FM301500 13014KT P6SM BKN250
     FM310000 13017KT P6SM VCSH BKN090
      AMD LTD TO CLD VIS AND WIND=

USA.gov is the U.S. government's official web portal to all federal, state and local government web resources and services.